Walvis Bay Airport

Jump to: basic info | weather | frequencies | runways | comments

Related pages: nearby airports | nearby navaids | notams | map

Basic information (top)

Codes: WVB FYWB
Location: lon -22.979900, lat 14.645300, elev 299 ft / 91 m msl
Status: medium_airport
Scheduled airline service: no
Links: Wikipedia Mobile

Weather (top)

Current conditions (rec'd 2014/12/22 21:00Z):

FYWB 222100Z AUTO 35003KT //// // ////// 14/11 Q1017

Airport forecast (rec'd 2014/12/22 18:10Z):

TAF FYKT 221600Z 2218/2324 31008KT CAVOK= TAF FYWB 221600Z 2218/2324 25008KT CAVOK 
      BECMG 2219/2221 03005KT 9999 BKN010 
      BECMG 2308/2310 23009KT CAVOK

Frequencies (top)

Verify before use: may be inaccurate or out of date.

APP: 122.5 MHz (APP)
TWR: 122.5 MHz (TWR)

Runways (top)

09/27: 7,001 x 98 ft (2,134 x 30 m) — paved — lighted

Latest comments (top)

No comments yet for Walvis Bay Airport

More... (top)

See also NOTAMs and nearby airports and navaids, or visit the Walvis Bay Airport page at the main OurAirports website..